[[{"header":{"parameterUnit":"m.s-1","parameterCategory":1,"la1":30.2991,"la2":30.254,"lo1":-89.0895,"lo2":-89.0444,"dy":0.0017,"dx":0.0017,"nx":28,"ny":28,"refTime":"2024-08-21T09:00:00:Z","depth":0,"parameterNumber":2,"parameterNumberName":"U-component_of_WINDS"},"data":[0,0,0,0,0,0,0,0,0,0,0,0,0,0,0,0,0,0,0,0,0,0,0,0,0,0,0,0,0,0,0,0,0,0,0,0,0,0,0,0,0,0,0,0,0,0,0,0,0,0,0,0,0,0,0,0,0,0,-0.1612,-0.1612,0,-0.1593,-0.1593,-0.1593,-0.1523,-0.1521,-0.152,-0.1518,-0.1502,-0.1504,-0.1505,0,0,0,0,0,0,0,0,0,0,0,0,0,-0.1589,-0.1589,-0.1612,-0.1612,-0.1611,-0.1593,-0.1593,-0.1593,-0.1523,-0.1521,-0.1519,-0.1518,-0.1502,-0.1503,-0.1505,0,0,0,0,0,0,0,0,0,0,0,0,0,-0.1587,-0.159,-0.1612,-0.1574,-0.1571,-0.1593,-0.1593,-0.1593,-0.1524,-0.1521,-0.1519,-0.1517,-0.1502,-0.1503,-0.1505,-0.1563,0,0,-0.151,-0.151,0,0,0,0,0,0,0,0,-0.1588,-0.1588,-0.158,-0.1577,-0.1573,-0.1558,-0.1579,-0.1583,-0.1524,-0.1542,-0.1518,-0.1515,-0.1523,-0.1523,-0.1525,-0.1562,-0.1562,-0.151,-0.1511,-0.1512,-0.1512,0,0,0,0,0,0,0,-0.1588,-0.1589,-0.1605,-0.158,-0.1576,-0.1559,-0.1556,-0.1579,-0.1546,-0.154,-0.1535,-0.1533,-0.1521,-0.1523,-0.1524,-0.1561,-0.151,-0.1511,-0.1512,-0.1513,-0.1645,-0.1647,0,0,0,0,0,0,-0.1593,-0.1589,-0.1605,-0.1604,-0.1574,-0.1561,-0.1558,-0.1565,-0.1546,-0.154,-0.1536,-0.153,-0.1522,-0.1522,-0.1523,-0.159,-0.1512,-0.1513,-0.1514,-0.1643,-0.1646,-0.1648,0,0,0,0,0,0,-0.1593,-0.1595,-0.1606,-0.1595,-0.1595,-0.1564,-0.1573,-0.1566,-0.1569,-0.1542,-0.1536,-0.1544,-0.152,-0.1521,-0.1553,-0.1589,-0.1514,-0.1515,-0.164,-0.1643,-0.1647,-0.1725,0,0,0,0,0,0,-0.1592,-0.1595,-0.1617,-0.1596,-0.1596,-0.1637,-0.1575,-0.1568,-0.1571,-0.1564,-0.1549,-0.1544,-0.1518,-0.1551,-0.1555,-0.1589,-0.1517,-0.1636,-0.1641,-0.1646,-0.1719,-0.1731,-0.1741,0,0,0,0,0,-0.1592,-0.164,-0.1618,-0.1621,-0.1622,-0.1639,-0.1639,-0.1607,-0.1574,-0.1596,-0.1579,-0.1545,-0.1583,-0.1555,-0.1559,-0.1594,-0.1634,-0.164,-0.1645,-0.1714,-0.1729,-0.1741,0,0,0,0,0,0,-0.1668,-0.1637,-0.1612,-0.1656,-0.165,-0.1627,-0.1654,-0.1623,-0.1628,-0.1621,-0.1582,-0.1579,-0.1617,-0.1608,-0.1577,-0.1649,-0.1603,-0.161,-0.1654,-0.1667,-0.1678,-0.1681,-0.1518,0,0,0,0,0,-0.1689,-0.1704,-0.1677,-0.1718,-0.1716,-0.1685,-0.1691,-0.1667,-0.166,-0.1657,-0.1643,-0.1638,-0.1649,-0.1657,-0.1666,-0.1716,-0.1712,-0.1742,-0.1753,-0.1762,-0.177,-0.1796,-0.1809,-0.1667,-0.1667,-0.1667,0,0,-0.1735,-0.172,-0.1732,-0.1733,-0.1725,-0.1743,-0.1684,-0.1705,-0.1717,-0.1661,-0.1691,-0.1679,-0.1671,-0.1713,-0.1731,-0.1707,-0.1807,-0.177,-0.1777,-0.1779,-0.1803,-0.1816,-0.1828,-0.1671,-0.167,-0.167,0,0,-0.1827,-0.1816,-0.1849,-0.1843,-0.1832,-0.181,-0.1818,-0.1799,-0.1789,-0.1818,-0.1776,-0.179,-0.181,-0.1805,-0.1806,-0.1894,-0.1863,-0.1897,-0.1956,-0.1982,-0.1993,-0.2003,-0.2035,-0.2047,-0.1904,-0.1904,-0.1904,0,-0.1886,-0.1909,-0.1871,-0.1894,-0.1895,-0.1843,-0.1876,-0.1872,-0.1865,-0.1868,-0.184,-0.1863,-0.1854,-0.1894,-0.1915,-0.1917,-0.1925,-0.19,-0.1994,-0.2003,-0.2012,-0.2042,-0.2055,-0.1908,-0.1908,-0.1908,-0.1907,0,-0.1981,-0.1998,-0.2026,-0.2019,-0.2023,-0.2052,-0.2018,-0.2027,-0.2001,-0.1983,-0.2013,-0.1999,-0.2004,-0.2011,-0.1987,-0.2048,-0.2034,-0.2001,-0.1954,-0.2031,-0.2059,-0.207,-0.1915,-0.1913,-0.1912,-0.1911,0,0,-0.2125,-0.2094,-0.2105,-0.2101,-0.2084,-0.2096,-0.2121,-0.2125,-0.2134,-0.2129,-0.2151,-0.2167,-0.2136,-0.2137,-0.2111,-0.2133,-0.2204,-0.2097,-0.2097,-0.2119,-0.2271,-0.2298,-0.2312,-0.2182,-0.2184,-0.2186,-0.2272,0,-0.2213,-0.2254,-0.222,-0.2268,-0.2283,-0.2232,-0.2253,-0.2246,-0.2228,-0.2239,-0.222,-0.2233,-0.219,-0.219,-0.221,-0.2192,-0.2235,-0.2184,-0.2203,-0.2204,-0.2209,-0.2326,-0.2354,-0.2437,-0.2283,-0.2285,-0.2286,0,-0.2323,-0.2323,-0.2372,-0.235,-0.2355,-0.2376,-0.2375,-0.2385,-0.2375,-0.2361,-0.236,-0.2328,-0.2351,-0.2303,-0.2335,-0.2302,-0.2307,-0.2299,-0.2301,-0.2304,-0.2251,-0.2334,-0.2462,-0.2476,-0.2302,-0.2301,-0.23,0,-0.2424,-0.2436,-0.2466,-0.2464,-0.2439,-0.2455,-0.2445,-0.2432,-0.2436,-0.2435,-0.2438,-0.244,-0.2443,-0.2445,-0.2414,-0.2382,-0.2451,-0.24,-0.2441,-0.2442,-0.246,-0.246,-0.2594,-0.246,-0.246,-0.2459,-0.2459,0,-0.2528,-0.2561,-0.2511,-0.2531,-0.2566,-0.2524,-0.256,-0.2545,-0.2534,-0.2549,-0.2505,-0.2521,-0.2478,-0.2489,-0.2465,-0.2496,-0.2497,-0.2486,-0.248,-0.2492,-0.2494,-0.2497,-0.2491,-0.2463,-0.2462,-0.2461,-0.2461,0,-0.2649,-0.2617,-0.2647,-0.262,-0.2614,-0.2641,-0.2618,-0.2635,-0.2613,-0.2633,-0.2636,-0.2603,-0.2614,-0.2582,-0.2588,-0.2572,-0.2617,-0.26,-0.2621,-0.2617,-0.266,-0.2657,-0.2802,-0.2819,-0.2673,-0.2674,-0.2675,0,-0.2719,-0.2742,-0.2717,-0.2724,-0.2716,-0.2728,-0.273,-0.269,-0.2695,-0.2684,-0.2702,-0.2709,-0.2713,-0.2732,-0.271,-0.2714,-0.2698,-0.2748,-0.2699,-0.2709,-0.2701,-0.2701,-0.2703,-0.276,-0.2762,-0.2763,-0.2764,0,-0.2847,-0.2829,-0.2835,-0.2834,-0.2839,-0.2837,-0.2832,-0.284,-0.2797,-0.2805,-0.2815,-0.2817,-0.2822,-0.283,-0.2829,-0.2819,-0.2786,-0.2779,-0.2789,-0.2803,-0.2815,-0.281,-0.2651,-0.2777,-0.2776,-0.2775,-0.2774,-0.2774,-0.2945,-0.2964,-0.2948,-0.2956,-0.2947,-0.2943,-0.2957,-0.2936,-0.2943,-0.2944,-0.2919,-0.2934,-0.2922,-0.2916,-0.291,-0.2921,-0.2898,-0.2913,-0.2916,-0.2921,-0.2929,-0.281,-0.2921,-0.292,-0.292,-0.292,-0.2919,0,-0.3072,-0.3059,-0.3066,-0.3059,-0.3065,-0.303,-0.3022,-0.3029,-0.3043,-0.3033,-0.3037,-0.3048,-0.3054,-0.303,-0.3034,-0.3047,-0.3032,-0.305,-0.305,-0.3048,-0.2949,-0.2941,-0.3062,-0.3062,-0.3062,-0.3062,-0.3062,-0.3062,-0.3139,-0.3169,-0.3149,-0.3173,-0.3159,-0.3173,-0.3171,-0.3167,-0.3159,-0.3173,-0.3178,-0.3161,-0.3146,-0.3147,-0.3152,-0.3144,-0.3149,-0.3172,-0.316,-0.3069,-0.3055,-0.3042,-0.3034,-0.3173,-0.3173,-0.3259,-0.3259,-0.326]},{"header":{"parameterUnit":"m.s-1","parameterCategory":1,"la1":30.2991,"la2":30.254,"lo1":-89.0895,"lo2":-89.0444,"dy":0.0017,"dx":0.0017,"nx":28,"ny":28,"refTime":"2024-08-21T09:00:00:Z","depth":0,"parameterNumber":3,"parameterNumberName":"V-component_of_WINDS"},"data":[0,0,0,0,0,0,0,0,0,0,0,0,0,0,0,0,0,0,0,0,0,0,0,0,0,0,0,0,0,0,0,0,0,0,0,0,0,0,0,0,0,0,0,0,0,0,0,0,0,0,0,0,0,0,0,0,0,0,-2.964,-2.964,0,-2.9708,-2.9709,-2.9709,-2.9715,-2.9715,-2.9714,-2.9713,-2.9779,-2.9781,-2.9784,0,0,0,0,0,0,0,0,0,0,0,0,0,-2.9509,-2.9511,-2.9639,-2.964,-2.9641,-2.9708,-2.9709,-2.971,-2.9716,-2.9715,-2.9714,-2.9713,-2.9778,-2.9781,-2.9784,0,0,0,0,0,0,0,0,0,0,0,0,0,-2.957,-2.9512,-2.9639,-2.9652,-2.9654,-2.9708,-2.9709,-2.971,-2.9716,-2.9715,-2.9714,-2.9713,-2.9777,-2.9781,-2.9784,-2.9828,0,0,-2.9795,-2.9797,0,0,0,0,0,0,0,0,-2.9567,-2.9575,-2.965,-2.9652,-2.9654,-2.9702,-2.9687,-2.9749,-2.9716,-2.9692,-2.9713,-2.9712,-2.9754,-2.976,-2.9775,-2.9831,-2.9834,-2.9796,-2.9798,-2.98,-2.9801,0,0,0,0,0,0,0,-2.9562,-2.9572,-2.9666,-2.9651,-2.9653,-2.9653,-2.9661,-2.9699,-2.9728,-2.9694,-2.9695,-2.9703,-2.9755,-2.9771,-2.9776,-2.9835,-2.9796,-2.9799,-2.9801,-2.9803,-2.9928,-2.9929,0,0,0,0,0,0,-2.9556,-2.9568,-2.9664,-2.9668,-2.9607,-2.9656,-2.9665,-2.9688,-2.9728,-2.9733,-2.9704,-2.9703,-2.9765,-2.9772,-2.9778,-2.9831,-2.98,-2.9803,-2.9805,-2.9927,-2.9929,-2.993,0,0,0,0,0,0,-2.9554,-2.9565,-2.9661,-2.9619,-2.9631,-2.966,-2.9685,-2.9689,-2.9706,-2.9735,-2.974,-2.9715,-2.9765,-2.9773,-2.9816,-2.9833,-2.9805,-2.9808,-2.9926,-2.9928,-2.9929,-2.9936,0,0,0,0,0,0,-2.955,-2.9564,-2.9582,-2.9619,-2.9633,-2.9699,-2.9687,-2.9692,-2.9712,-2.9712,-2.9747,-2.9752,-2.9765,-2.981,-2.9819,-2.9837,-2.9811,-2.9924,-2.9927,-2.9929,-2.9935,-2.9938,-2.9941,0,0,0,0,0,-2.9545,-2.9581,-2.9583,-2.9595,-2.9657,-2.97,-2.9708,-2.9723,-2.9714,-2.9731,-2.975,-2.9751,-2.983,-2.9814,-2.9825,-2.9844,-2.9923,-2.9926,-2.9929,-2.9933,-2.9937,-2.9941,0,0,0,0,0,0,-2.9544,-2.9586,-2.9589,-2.9638,-2.9666,-2.9701,-2.9724,-2.9728,-2.9757,-2.9755,-2.9772,-2.9779,-2.982,-2.9837,-2.9819,-2.9887,-2.9875,-2.988,-2.9875,-2.988,-2.9883,-2.9877,-2.9814,0,0,0,0,0,-2.955,-2.9583,-2.9617,-2.9657,-2.9671,-2.9695,-2.9715,-2.9724,-2.9752,-2.9763,-2.9785,-2.9812,-2.9842,-2.9862,-2.9892,-2.9937,-2.9944,-2.9956,-2.9959,-2.9961,-2.9965,-2.9987,-2.9993,-2.9939,-2.9938,-2.9938,0,0,-2.9562,-2.9589,-2.9609,-2.9658,-2.968,-2.9712,-2.9705,-2.9739,-2.9763,-2.9768,-2.9809,-2.9826,-2.9856,-2.99,-2.992,-2.9914,-2.9981,-2.9965,-2.9966,-2.9969,-2.9991,-2.9996,-3.0,-2.994,-2.994,-2.994,0,0,-2.96,-2.9625,-2.966,-2.9682,-2.9716,-2.9732,-2.974,-2.9775,-2.9786,-2.9828,-2.9832,-2.9859,-2.9913,-2.9933,-2.9951,-2.9994,-2.9995,-3.0004,-3.002,-3.0042,-3.0046,-3.005,-3.0064,-3.0069,-3.0007,-3.0007,-3.0007,0,-2.961,-2.966,-2.9677,-2.9711,-2.9731,-2.9739,-2.9773,-2.9794,-2.9836,-2.9849,-2.9842,-2.9908,-2.9929,-2.9976,-2.9987,-3.0001,-3.0009,-2.9999,-3.0045,-3.0048,-3.0052,-3.0065,-3.0071,-3.0008,-3.0008,-3.0008,-3.0008,0,-2.9669,-2.9703,-2.9727,-2.9768,-2.9791,-2.9826,-2.9846,-2.9867,-2.9874,-2.9889,-2.993,-2.9956,-2.999,-3.0002,-3.0009,-3.0049,-3.0045,-3.0042,-3.0029,-3.0058,-3.007,-3.0076,-3.0009,-3.0009,-3.0009,-3.0008,0,0,-2.9708,-2.9758,-2.9766,-2.9784,-2.9821,-2.9847,-2.988,-2.9915,-2.9932,-2.996,-2.9987,-3.0031,-3.0027,-3.0047,-3.0056,-3.0076,-3.0106,-3.007,-3.0071,-3.0074,-3.015,-3.0151,-3.0157,-3.0108,-3.0109,-3.0109,-3.0147,0,-2.9749,-2.981,-2.9826,-2.9877,-2.9907,-2.9914,-2.9943,-2.9968,-2.9983,-3.0009,-3.0025,-3.0056,-3.005,-3.0062,-3.0081,-3.0098,-3.0121,-3.0096,-3.013,-3.0131,-3.0121,-3.0164,-3.0166,-3.02,-3.0152,-3.0153,-3.0153,0,-2.9804,-2.9834,-2.9889,-2.9921,-2.9934,-2.996,-2.9992,-3.0018,-3.0045,-3.0055,-3.0076,-3.0083,-3.0116,-3.0103,-3.0147,-3.0129,-3.0144,-3.0154,-3.0156,-3.0158,-3.0143,-3.0166,-3.0211,-3.0215,-3.0162,-3.0161,-3.016,0,-2.9825,-2.9879,-2.9918,-2.9933,-2.9972,-2.9989,-3.0006,-3.0033,-3.0052,-3.0079,-3.0091,-3.0122,-3.0138,-3.016,-3.0174,-3.0164,-3.0216,-3.0205,-3.0223,-3.0223,-3.0233,-3.0232,-3.0279,-3.0245,-3.0245,-3.0245,-3.0245,0,-2.9868,-2.99,-2.9927,-2.9951,-2.9987,-3.0004,-3.0038,-3.0055,-3.0078,-3.0104,-3.0112,-3.0135,-3.0153,-3.0178,-3.0189,-3.0223,-3.023,-3.0237,-3.0239,-3.0236,-3.0235,-3.0245,-3.0242,-3.0246,-3.0246,-3.0246,-3.0245,0,-2.9896,-2.9916,-2.9959,-2.9992,-3.0001,-3.0026,-3.0053,-3.0076,-3.0091,-3.0123,-3.0131,-3.0154,-3.0184,-3.0201,-3.0238,-3.0246,-3.0282,-3.0284,-3.0273,-3.0274,-3.029,-3.0288,-3.0345,-3.0352,-3.0314,-3.0315,-3.0315,0,-2.9922,-2.9947,-2.9983,-3.0001,-3.0018,-3.0048,-3.0067,-3.0084,-3.0104,-3.0136,-3.0154,-3.0185,-3.021,-3.0257,-3.0276,-3.0304,-3.0306,-3.0324,-3.031,-3.0305,-3.0304,-3.0302,-3.0303,-3.0326,-3.0326,-3.0326,-3.0327,0,-2.9964,-2.9972,-3.0001,-3.0033,-3.0056,-3.0081,-3.0106,-3.012,-3.0141,-3.0162,-3.0194,-3.0213,-3.0252,-3.0281,-3.0311,-3.0326,-3.0329,-3.0331,-3.0336,-3.0332,-3.0324,-3.0327,-3.0278,-3.0329,-3.0329,-3.0329,-3.0329,-3.0329,-2.999,-3.0012,-3.0041,-3.0072,-3.0093,-3.0115,-3.0138,-3.0155,-3.0182,-3.0215,-3.0223,-3.0256,-3.028,-3.032,-3.0336,-3.036,-3.0357,-3.0365,-3.0367,-3.0368,-3.0368,-3.0321,-3.0366,-3.0366,-3.0366,-3.0366,-3.0366,0,-3.0031,-3.005,-3.0078,-3.0113,-3.0137,-3.014,-3.0167,-3.0186,-3.0215,-3.0239,-3.0263,-3.0298,-3.0326,-3.0347,-3.0376,-3.0391,-3.0393,-3.0398,-3.0396,-3.0399,-3.037,-3.0362,-3.0395,-3.0395,-3.0395,-3.0395,-3.0395,-3.0395,-3.0055,-3.0092,-3.0103,-3.0149,-3.0167,-3.02,-3.0215,-3.0235,-3.0254,-3.0293,-3.0317,-3.0331,-3.0353,-3.0383,-3.0408,-3.0413,-3.0422,-3.0427,-3.0432,-3.0404,-3.0401,-3.0398,-3.039,-3.0429,-3.0429,-3.0458,-3.0458,-3.0458]}]]